Notices

What's New in latest Release from April 7th, 2021:

- Updated Glossary, including Speed of Maximum Gust, and Total Hourly Precipitation

- Updated national and regional climate services offices contacts and prices information

- Addition of station inventory lists for 1981-2010, 1971-2000, and 1961-1990 Normals.

If you haven't already, please take our survey and provide feedback about our website: https://eccc.sondage-survey.ca/f/LanguageSelection.aspx?s=442ca660-fcf1-47c0-95a9-59707d6fd709

Hourly Data Report for December 27, 2003

TORONTO CITY
ONTARIO

43°40'00.000" N
79°24'00.000" W
112.50 m
6158355
71508
XTO

Download Data

Hourly Data (December 2003)
Hourly Data Report for December 27, 2003
TIME
LST
Temp Definition
°C
Dew Point Definition
°C
Rel Hum Definition
%
Precip. Amount Definition
mm

Wind Dir Definition
10's deg

Wind Spd Definition
km/h
Visibility Definition
km
Stn Press Definition
kPa
Hmdx Definition


Wind Chill Definition


Weather Definition


00:00 1.8 -0.6 84   LegendMM LegendMM LegendMM 101.02     LegendNANA
01:00 1.4 -0.5 87   LegendMM LegendMM LegendMM 101.04     LegendNANA
02:00 1.0 -0.5 90   LegendMM LegendMM LegendMM 101.08     LegendNANA
03:00 -0.8 -4.1 78   LegendMM LegendMM LegendMM 100.97     LegendNANA
04:00
05:00 0.9 -0.7 89   LegendMM LegendMM LegendMM 101.13     LegendNANA
06:00 1.3 -0.3 89   LegendMM LegendMM LegendMM 101.21     LegendNANA
07:00 0.8 -0.5 91   LegendMM LegendMM LegendMM 101.27     LegendNANA
08:00 -0.4 -1.5 92   LegendMM LegendMM LegendMM 101.36     LegendNANA
09:00 1.1 -0.4 90   LegendMM LegendMM LegendMM 101.39     LegendNANA
10:00 2.7 -1.4 74   LegendMM LegendMM LegendMM 101.40     LegendNANA
11:00 4.9 -0.2 70   LegendMM LegendMM LegendMM 101.39     LegendNANA
12:00 4.8 0.1 72   LegendMM LegendMM LegendMM 101.33     LegendNANA
13:00 5.4 0.5 71   LegendMM LegendMM LegendMM 101.27     LegendNANA
14:00 -2.0 -5.4 78   LegendMM LegendMM LegendMM 100.74     LegendNANA
15:00 -1.8 -5.4 76   LegendMM LegendMM LegendMM 100.73     LegendNANA
16:00 5.0 0.7 74   LegendMM LegendMM LegendMM 101.36     LegendNANA
17:00 5.5 -1.7 60   LegendMM LegendMM LegendMM 101.35     LegendNANA
18:00 3.5 0.2 79   LegendMM LegendMM LegendMM 101.37     LegendNANA
19:00 3.7 1.7 87   LegendMM LegendMM LegendMM 101.38     LegendNANA
20:00 3.7 2.1 89   LegendMM LegendMM LegendMM 101.36     LegendNANA
21:00 3.3 2.2 92   LegendMM LegendMM LegendMM 101.33     LegendNANA
22:00 3.2 2.0 92   LegendMM LegendMM LegendMM 101.31     LegendNANA
23:00 2.6 2.0 96   LegendMM LegendMM LegendMM 101.27     LegendNANA

Notes on Data Quality.

Legend

  • E = Estimated
  • M = Missing
  • NA = Not Available*
  • [empty] = Indicates an unobserved value
Date modified: